Alvadore, OR

10:11 PM PST on February 26, 2017 (GMT -0800)
Mahlon Sweet

Weather History for KEUG - February, 2014

Change the Weather History Date:

Saturday, February 8, 2014

  Actual Average Record
Temperature  
Mean Temperature 31 °F 42 °F  
Max Temperature 32 °F 50 °F 67 °F (1919)
Min Temperature 29 °F 35 °F 8 °F (1989)
Degree Days  
Heating Degree Days 34 23  
Month to date heating degree days 250 184  
Since 1 July heating degree days 3175 2894  
Cooling Degree Days 0 0  
Month to date cooling degree days 0 0  
Year to date cooling degree days 0 0  
Moisture  
Dew Point 28 °F    
Average Humidity 93    
Maximum Humidity 100    
Minimum Humidity 85    
Precipitation  
Precipitation 0.66 in 0.20 in 1.58 in (1986)
Month to date precipitation 2.07 1.56  
Year to date precipitation 4.65 8.43  
Snow  
Snow 0.00 in - - ()
Month to date snowfall 8.7  
Since 1 July snowfall 15.7  
Snow Depth 7.00 in    
Sea Level Pressure  
Sea Level Pressure 29.85 in    
Wind  
Wind Speed 7 mph (North)    
Max Wind Speed 20 mph    
Max Gust Speed 22 mph    
Visibility 5 miles    
Events Rain , Snow    
T = Trace of Precipitation, MM = Missing Value Source: NWS Daily Summary

Daily Weather History Graph

Daily Weather History Graph

Search for Another Location

Airport or City:

Trip Planner

Search our weather history database for the weather conditions in past years. The results will help you decide how hot, cold, wet, or windy it might be!

Date:

Astronomy

Feb. 08, 2014 Rise Set
Actual Time 7:21 AM PST 5:32 PM PST
Civil Twilight 6:51 AM PST 6:03 PM PST
Nautical Twilight 6:17 AM PST 6:37 PM PST
Astronomical Twilight 5:43 AM PST 7:10 PM PST
Moon 12:27 PM PST (2/8) 2:42 AM PST (2/8)
Length of Visible Light 11h 11m
Length of Day
10h 11m
Waxing Gibbous, 69% of the Moon is Illuminated
Feb 8
Waxing Gibbous
Feb 14
Full
Feb 22
Last Quarter
Mar 1
New
Mar 8
First Quarter

Hourly Weather History & Observations

Time (PST) Temp. Windchill Dew Point Humidity Pressure Visibility Wind Dir Wind Speed Gust Speed Precip Events Conditions
12:20 AM 28.9 °F - 27.0 °F 92% 29.82 in 2.5 mi Calm Calm - N/A   Overcast
12:24 AM 28.9 °F - 27.0 °F 92% 29.83 in 3.0 mi Calm Calm - N/A   Overcast
12:45 AM 28.9 °F - 27.0 °F 92% 29.83 in 5.0 mi Calm Calm - N/A   Overcast
12:54 AM 28.9 °F - 27.0 °F 92% 29.85 in 6.0 mi Calm Calm - N/A   Overcast
1:08 AM 28.9 °F - 27.0 °F 92% 29.84 in 9.0 mi Calm Calm - N/A   Overcast
1:54 AM 28.9 °F - 28.0 °F 96% 29.87 in 3.0 mi Calm Calm - N/A   Overcast
2:25 AM 30.0 °F - 28.0 °F 92% 29.88 in 3.0 mi Calm Calm - 0.01 in Rain Light Freezing Rain
2:54 AM 30.0 °F 26.5 °F 28.0 °F 92% 29.91 in 5.0 mi North 3.5 mph - 0.01 in Rain Light Freezing Rain
3:07 AM 30.0 °F 25.2 °F 28.0 °F 92% 29.90 in 6.0 mi North 4.6 mph - 0.00 in   Overcast
3:22 AM 30.0 °F 26.5 °F 28.0 °F 92% 29.90 in 5.0 mi North 3.5 mph - 0.01 in Rain Light Freezing Rain
3:42 AM 30.0 °F - 28.0 °F 92% 29.90 in 8.0 mi Calm Calm - 0.01 in   Overcast
3:54 AM 30.0 °F 26.5 °F 28.0 °F 92% 29.91 in 7.0 mi NNE 3.5 mph - 0.01 in   Overcast
4:54 AM 30.0 °F 25.2 °F 28.0 °F 92% 29.91 in 6.0 mi NNE 4.6 mph - 0.02 in   Overcast
5:26 AM 30.0 °F 23.2 °F 28.0 °F 92% 29.90 in 8.0 mi North 6.9 mph - 0.00 in Rain Light Freezing Rain
5:54 AM 30.0 °F 23.2 °F 28.0 °F 92% 29.91 in 7.0 mi NNE 6.9 mph - 0.01 in Rain Light Freezing Rain
6:12 AM 30.0 °F 21.7 °F 28.0 °F 92% 29.91 in 5.0 mi North 9.2 mph - 0.01 in Rain Light Freezing Rain
6:30 AM 30.0 °F 20.5 °F 28.0 °F 92% 29.90 in 5.0 mi North 11.5 mph - 0.02 in Rain Light Freezing Rain
6:54 AM 30.0 °F 21.7 °F 28.0 °F 92% 29.92 in 4.0 mi North 9.2 mph - 0.03 in Rain Light Freezing Rain
7:54 AM 30.0 °F 20.0 °F 28.0 °F 92% 29.92 in 3.0 mi North 12.7 mph - 0.05 in Rain Light Freezing Rain
8:26 AM 30.0 °F 20.0 °F 28.0 °F 92% 29.90 in 2.5 mi North 12.7 mph - 0.02 in Rain Light Freezing Rain
8:41 AM 30.0 °F 21.1 °F 28.0 °F 92% 29.90 in 2.5 mi North 10.4 mph - 0.06 in Rain Light Freezing Rain
8:50 AM 30.2 °F 21.3 °F 28.4 °F 93% 29.90 in 3.0 mi North 10.4 mph - 0.07 in Rain Light Freezing Rain
8:54 AM 30.0 °F 20.5 °F 28.0 °F 92% 29.92 in 4.0 mi North 11.5 mph - 0.08 in Rain Light Freezing Rain
9:54 AM 30.0 °F 19.5 °F 28.0 °F 92% 29.94 in 5.0 mi North 13.8 mph - 0.09 in Rain Light Freezing Rain
10:54 AM 30.0 °F 20.5 °F 28.0 °F 92% 29.93 in 3.0 mi NNE 11.5 mph - 0.08 in Rain Light Freezing Rain
11:54 AM 30.0 °F 17.9 °F 28.0 °F 92% 29.84 in 5.0 mi North 18.4 mph - 0.07 in Rain Light Freezing Rain
12:54 PM 30.0 °F 19.1 °F 28.0 °F 92% 29.82 in 4.0 mi North 15.0 mph - 0.03 in Rain Light Freezing Rain
1:13 PM 30.0 °F 19.1 °F 28.0 °F 92% 29.79 in 2.5 mi NNE 15.0 mph - 0.02 in Snow Light Snow
1:35 PM 30.0 °F 18.7 °F 28.0 °F 92% 29.77 in 1.5 mi North 16.1 mph - 0.04 in Rain , Snow Light Freezing Rain
1:49 PM 30.2 °F 19.3 °F 28.4 °F 93% 29.76 in 2.5 mi North 15.0 mph - 0.07 in Rain Light Freezing Rain
1:54 PM 30.0 °F 19.1 °F 28.0 °F 92% 29.77 in 2.5 mi North 15.0 mph - 0.07 in Rain Light Freezing Rain
2:54 PM 30.0 °F 19.5 °F 28.0 °F 92% 29.76 in 2.0 mi NNE 13.8 mph - 0.02 in Rain Light Freezing Rain
3:06 PM 30.0 °F 20.0 °F 28.0 °F 92% 29.74 in 1.5 mi NNE 12.7 mph - 0.03 in Rain Light Freezing Rain
3:54 PM 30.9 °F 23.5 °F 28.0 °F 89% 29.74 in 2.0 mi North 8.1 mph - 0.06 in Rain Light Freezing Rain
4:54 PM 30.9 °F 25.2 °F 28.9 °F 92% 29.75 in 2.0 mi North 5.8 mph - 0.03 in   Light Freezing Rain
5:17 PM 30.9 °F 25.2 °F 28.0 °F 89% 29.74 in 4.0 mi North 5.8 mph - 0.00 in   Overcast
5:54 PM 30.9 °F - 28.9 °F 92% 29.76 in 6.0 mi Calm Calm - 0.00 in   Overcast
6:45 PM 30.9 °F - 28.9 °F 92% 29.75 in 8.0 mi Calm Calm - N/A   Overcast
6:54 PM 30.9 °F - 28.9 °F 92% 29.78 in 8.0 mi Calm Calm - N/A   Overcast
7:23 PM 30.9 °F - 28.9 °F 92% 29.77 in 10.0 mi Calm Calm - N/A   Overcast
7:54 PM 30.9 °F - 28.9 °F 92% 29.80 in 10.0 mi Calm Calm - N/A   Overcast
8:18 PM 30.9 °F - 28.9 °F 92% 29.80 in 10.0 mi Calm Calm - N/A   Overcast
8:54 PM 30.9 °F - 28.9 °F 92% 29.83 in 10.0 mi Calm Calm - N/A   Overcast
9:54 PM 32.0 °F - 28.9 °F 88% 29.88 in 10.0 mi Calm Calm - N/A   Overcast
10:54 PM 32.0 °F - 28.9 °F 88% 29.93 in 10.0 mi Calm Calm - N/A   Overcast
11:37 PM - - - N/A% 29.96 in - North - - N/A   Unknown
11:54 PM - - - N/A% 29.96 in - North - - N/A   Unknown